Content
SEND FEEDBACK

Daily
Averages
Monthly
Summary
Ecuador

ALFARO, ECUADOR


Home > South America > Ecuador
Elevation: 30 feet     Latitude: 02 01N     Longitude: 079 52W

WEATHER
 
SELECT A DAY
Number of Records: 144,063;   Date Range: 6/30/96 - 8/10/14
 
SHARE

PRINT THIS DATA

[ ← Previous Day ]
WEATHER ALMANAC - FEBRUARY 13, 2013
[ Next Day → ]
[ °C ]   °F
Weather ElementAverageHighLow
Temperature82.2 °F89.6 °F (4:00 pm)75.2 °F (4:00 am)
Dewpoint61.3 °F71.6 °F (5:48 pm) (7:00 pm)
Humidity63.7 %83 % (5:00 am)42 % (1:00 pm)
Barometer29.80 in29.88 in (10:00 am)29.71 in (4:00 pm)
Wind Speed4.3 mph6.9 mph (3:00 am)
Wind Gust19.6 mph (5:48 pm)
Weather ElementAverage
Visibility6.4 mi
Wind DirectionSE (133.3 °)

Weather ElementTotal
Precipitation---
Cooling Degree Days17.4 (Base 65)
Growing Degree Days32.4 (Base 50)
Averaged from 28 records on February 13, 2013
WEATHER CONDITIONS BREAKOUT
WIND DIRECTION BREAKOUT
WEATHER BY HOUR - FEBRUARY 13, 2013
[ °C ]   °F
Local TimeTemperatureDewpointHumidityBarometerVisibilityWind DirectionWind SpeedGust SpeedPrecipitationEventsConditions
1:00 AM78.8 °F69.8 °F74 %29.86 in6.2 miSSW (200°)3.5 mphMostly Cloudy
2:00 AM77.0 °F68.0 °F74 %29.83 in6.2 miSouth (180°)5.8 mphScattered Clouds
3:00 AM77.0 °F68.0 °F74 %29.80 in6.2 miSSW (210°)6.9 mphScattered Clouds
4:00 AM75.2 °F68.0 °F78 %29.80 in6.2 miSSW (200°)6.9 mphScattered Clouds
5:00 AM75.2 °F69.8 °F83 %29.80 in6.2 miSSW (210°)2.3 mphScattered Clouds
6:00 AM77.0 °F66.2 °F69 %29.83 in6.2 miNW (310°)3.5 mphScattered Clouds
7:00 AM75.2 °F68.0 °F78 %29.83 in6.2 miNW (320°)5.8 mphMostly Cloudy
7:00 AM76.0 °F67.0 °F68 %29.85 in6.0 miNW (320°)5.8 mphHaze
8:00 AM78.8 °F68.0 °F69 %29.86 in6.2 miNW (310°)2.3 mphMostly Cloudy
9:00 AM80.6 °F68.0 °F65 %29.86 in6.2 miNE (40°)1.2 mphMostly Cloudy
10:00 AM81.0 °F69.0 °F58 %29.88 in7.0 miNNE (30°)4.6 mphHaze
10:00 AM80.6 °F68.0 °F65 %29.86 in6.2 miNNE (30°)4.6 mphMostly Cloudy
11:00 AM84.2 °F68.0 °F58 %29.86 in6.2 miNE (40°)5.8 mphMostly Cloudy
12:00 PM86.0 °F68.0 °F55 %29.83 in6.2 miENE (60°)4.6 mphScattered Clouds
12:30 PM87.8 °F0.0 °F29.74 in1.2 miWSW (240°)6.9 mphRainRain Showers
1:00 PM88.0 °F68.0 °F42 %29.82 in12.0 miNNE (30°)3.5 mphHaze
1:00 PM87.8 °F68.0 °F52 %29.80 in6.2 miNNE (30°)3.5 mphScattered Clouds
2:00 PM87.8 °F68.0 °F52 %29.77 in6.2 miVariable2.3 mphMostly Cloudy
3:00 PM87.8 °F68.0 °F52 %29.74 in6.2 miNE (40°)3.5 mphMostly Cloudy
4:00 PM89.0 °F69.0 °F43 %29.73 in19.0 mi°3.5 mphHaze
4:00 PM89.6 °F69.8 °F52 %29.71 in6.2 miVariable3.5 mphMostly Cloudy
5:00 PM87.8 °F68.0 °F52 %29.71 in6.2 miVariable3.5 mphMostly Cloudy
5:30 PM87.8 °F0.0 °F29.74 in1.2 miWSW (240°)6.9 mphRainRain Showers
5:48 PM80.6 °F71.6 °F74 %29.74 in5.0 miSSE (160°)4.6 mph19.6 mphRainLight Rain Showers
6:00 PM80.6 °F0.0 °F29.74 in5.0 miESE (110°)3.5 mphRainLight Rain Showers
7:00 PM81.0 °F71.0 °F66 %29.77 in6.0 miENE (70°)3.5 mphMostly Cloudy
7:00 PM80.6 °F71.6 °F74 %29.74 in6.2 miENE (70°)3.5 mphMostly Cloudy
8:00 PM82.4 °F69.8 °F66 %29.80 in6.2 miSSE (150°)4.6 mphMostly Cloudy
Hourly data recorded from SEGU, located miles away from Alfaro, Ecuador







STORIES FROM OUR PARTNERS